Stündliche Wetter Cayo Carenero

Heute, 28 Oktober, Mittwoch

Zeit Temperatur Niederschläge Wind Luftdruck Luftfeuchtigkeit
00:00 +28°C° 0.3 mm 1 m/S 757 mmHg 87%
01:00 +28°C° 0.3 mm 1 m/S 757 mmHg 87%
02:00 +28°C° 0 mm 1 m/S 757 mmHg 87%
03:00 +28°C° 0 mm 1 m/S 757 mmHg 86%
04:00 +27°C° 0 mm 1 m/S 756 mmHg 86%
05:00 +27°C° 1.1 mm 1 m/S 757 mmHg 86%
06:00 +28°C° 1.1 mm 2 m/S 757 mmHg 86%
07:00 +28°C° 1.1 mm 2 m/S 757 mmHg 85%
08:00 +28°C° 1.1 mm 2 m/S 758 mmHg 82%
09:00 +29°C° 1.1 mm 2 m/S 758 mmHg 79%
10:00 +30°C° 1.1 mm 2 m/S 759 mmHg 76%
11:00 +30°C° 0.9 mm 2 m/S 758 mmHg 77%
12:00 +31°C° 0.9 mm 3 m/S 757 mmHg 77%
13:00 +31°C° 0.9 mm 3 m/S 756 mmHg 78%
14:00 +31°C° 0.1 mm 3 m/S 756 mmHg 76%
15:00 +31°C° 0.1 mm 2 m/S 756 mmHg 75%
16:00 +31°C° 0.1 mm 2 m/S 755 mmHg 74%
17:00 +30°C° 0 mm 2 m/S 756 mmHg 78%
18:00 +29°C° 0 mm 2 m/S 756 mmHg 81%
19:00 +29°C° 0 mm 2 m/S 757 mmHg 85%
20:00 +28°C° 0 mm 1 m/S 757 mmHg 86%
21:00 +28°C° 0 mm 1 m/S 758 mmHg 87%
22:00 +28°C° 0 mm 1 m/S 758 mmHg 89%
23:00 +28°C° 0 mm 1 m/S 758 mmHg 89%

Morgen, 29 Oktober, Donnerstag

Zeit Temperatur Niederschläge Wind Luftdruck Luftfeuchtigkeit
00:00 +28°C° 0 mm 1 m/S 757 mmHg 89%
01:00 +27°C° 0 mm 1 m/S 757 mmHg 89%
02:00 +27°C° 0 mm 1 m/S 757 mmHg 89%
03:00 +27°C° 0 mm 1 m/S 756 mmHg 88%
04:00 +27°C° 0 mm 1 m/S 756 mmHg 88%
05:00 +27°C° 0.1 mm 1 m/S 757 mmHg 87%
06:00 +27°C° 0.1 mm 2 m/S 757 mmHg 86%
07:00 +27°C° 0.1 mm 2 m/S 757 mmHg 85%
08:00 +28°C° 0.2 mm 2 m/S 758 mmHg 79%
09:00 +30°C° 0.2 mm 2 m/S 758 mmHg 74%
10:00 +31°C° 0.2 mm 2 m/S 759 mmHg 68%
11:00 +32°C° 0 mm 2 m/S 758 mmHg 68%
12:00 +33°C° 0 mm 3 m/S 757 mmHg 69%
13:00 +33°C° 0 mm 3 m/S 756 mmHg 69%
14:00 +31°C° 0.1 mm 3 m/S 756 mmHg 70%
15:00 +31°C° 0.1 mm 3 m/S 756 mmHg 72%
16:00 +31°C° 0.1 mm 3 m/S 755 mmHg 73%
17:00 +30°C° 0.2 mm 2 m/S 756 mmHg 75%
18:00 +29°C° 0.2 mm 1 m/S 756 mmHg 78%
19:00 +27°C° 0.2 mm 0 m/S 757 mmHg 80%
20:00 +26°C° 0 mm 0 m/S 757 mmHg 82%
21:00 +28°C° 0 mm 1 m/S 758 mmHg 83%
22:00 +28°C° 0 mm 1 m/S 758 mmHg 84%
23:00 +28°C° 0 mm 1 m/S 758 mmHg 85%

übermorgen, 30 Oktober, Freitag

Zeit Temperatur Niederschläge Wind Luftdruck Luftfeuchtigkeit
00:00 +28°C° 0 mm 1 m/S 758 mmHg 85%
01:00 +27°C° 0 mm 1 m/S 758 mmHg 86%
02:00 +27°C° 0 mm 1 m/S 757 mmHg 86%
03:00 +27°C° 0 mm 1 m/S 757 mmHg 86%
04:00 +27°C° 0 mm 1 m/S 757 mmHg 86%
05:00 +27°C° 0 mm 1 m/S 757 mmHg 85%
06:00 +27°C° 0 mm 1 m/S 758 mmHg 85%
07:00 +27°C° 0 mm 2 m/S 758 mmHg 84%
08:00 +29°C° 0 mm 1 m/S 759 mmHg 79%
09:00 +30°C° 0 mm 1 m/S 759 mmHg 74%
10:00 +31°C° 0 mm 1 m/S 759 mmHg 68%
11:00 +31°C° 0 mm 1 m/S 759 mmHg 69%
12:00 +31°C° 0 mm 2 m/S 758 mmHg 69%
13:00 +31°C° 0 mm 2 m/S 757 mmHg 69%
14:00 +31°C° 0.2 mm 2 m/S 757 mmHg 71%
15:00 +31°C° 0.2 mm 2 m/S 757 mmHg 73%
16:00 +30°C° 0.2 mm 2 m/S 756 mmHg 75%
17:00 +30°C° 0.1 mm 2 m/S 757 mmHg 77%
18:00 +29°C° 0.1 mm 1 m/S 757 mmHg 80%
19:00 +29°C° 0.1 mm 1 m/S 758 mmHg 83%
20:00 +28°C° 0.1 mm 1 m/S 758 mmHg 84%
21:00 +28°C° 0.1 mm 1 m/S 759 mmHg 85%
22:00 +28°C° 0.1 mm 1 m/S 759 mmHg 86%
23:00 +28°C° 0.2 mm 1 m/S 759 mmHg 86%

31 Oktober, Samstag

Zeit Temperatur Niederschläge Wind Luftdruck Luftfeuchtigkeit
00:00 +28°C° 0.2 mm 1 m/S 759 mmHg 87%
01:00 +27°C° 0.2 mm 2 m/S 758 mmHg 88%
02:00 +27°C° 0.4 mm 2 m/S 758 mmHg 87%
03:00 +27°C° 0.4 mm 2 m/S 758 mmHg 87%
04:00 +27°C° 0.4 mm 2 m/S 758 mmHg 87%
05:00 +27°C° 0.6 mm 2 m/S 758 mmHg 87%
06:00 +27°C° 0.6 mm 2 m/S 759 mmHg 87%
07:00 +27°C° 0.6 mm 3 m/S 759 mmHg 86%
08:00 +28°C° 0 mm 3 m/S 759 mmHg 80%
09:00 +30°C° 0 mm 3 m/S 759 mmHg 74%
10:00 +31°C° 0 mm 3 m/S 760 mmHg 67%
11:00 +32°C° 0 mm 4 m/S 759 mmHg 67%
12:00 +33°C° 0 mm 4 m/S 758 mmHg 66%
13:00 +33°C° 0 mm 4 m/S 758 mmHg 65%
14:00 +33°C° 0.2 mm 4 m/S 757 mmHg 67%
15:00 +32°C° 0.2 mm 4 m/S 757 mmHg 69%
16:00 +32°C° 0.2 mm 4 m/S 757 mmHg 70%
17:00 +30°C° 0.3 mm 3 m/S 757 mmHg 74%
18:00 +29°C° 0.3 mm 3 m/S 758 mmHg 78%
19:00 +29°C° 0.3 mm 3 m/S 758 mmHg 82%
20:00 +28°C° 0.3 mm 3 m/S 759 mmHg 83%
21:00 +28°C° 0.3 mm 3 m/S 759 mmHg 84%
22:00 +28°C° 0.3 mm 4 m/S 759 mmHg 84%
23:00 +28°C° 0.1 mm 4 m/S 759 mmHg 84%

1 November, Sonntag

Zeit Temperatur Niederschläge Wind Luftdruck Luftfeuchtigkeit
00:00 +28°C° 0.1 mm 4 m/S 759 mmHg 84%
01:00 +28°C° 0.1 mm 4 m/S 759 mmHg 84%
02:00 +27°C° 0.3 mm 4 m/S 758 mmHg 83%
03:00 +27°C° 0.3 mm 4 m/S 758 mmHg 82%
04:00 +27°C° 0.3 mm 4 m/S 758 mmHg 82%
05:00 +27°C° 0.2 mm 4 m/S 758 mmHg 81%
06:00 +27°C° 0.2 mm 3 m/S 758 mmHg 80%
07:00 +27°C° 0.2 mm 3 m/S 759 mmHg 79%
08:00 +28°C° 0.2 mm 3 m/S 759 mmHg 75%
09:00 +30°C° 0.2 mm 4 m/S 759 mmHg 70%
10:00 +32°C° 0.2 mm 4 m/S 760 mmHg 65%
11:00 +32°C° 0 mm 4 m/S 759 mmHg 65%
12:00 +33°C° 0 mm 5 m/S 758 mmHg 65%
13:00 +33°C° 0 mm 5 m/S 758 mmHg 65%
14:00 +32°C° 0.2 mm 5 m/S 757 mmHg 69%
15:00 +32°C° 0.2 mm 5 m/S 757 mmHg 73%
16:00 +30°C° 0.2 mm 4 m/S 757 mmHg 77%
17:00 +29°C° 0.6 mm 4 m/S 757 mmHg 80%
18:00 +29°C° 0.6 mm 3 m/S 758 mmHg 82%
19:00 +28°C° 0.6 mm 3 m/S 758 mmHg 85%
20:00 +28°C° 0.7 mm 3 m/S 758 mmHg 85%
21:00 +28°C° 0.7 mm 3 m/S 759 mmHg 86%
22:00 +27°C° 0.7 mm 3 m/S 759 mmHg 86%
23:00 +27°C° 0.3 mm 3 m/S 759 mmHg 85%

2 November, Montag

Zeit Temperatur Niederschläge Wind Luftdruck Luftfeuchtigkeit
00:00 +27°C° 0.3 mm 3 m/S 759 mmHg 85%
01:00 +27°C° 0.3 mm 3 m/S 758 mmHg 85%
02:00 +27°C° 0.1 mm 3 m/S 758 mmHg 84%
03:00 +26°C° 0.1 mm 3 m/S 758 mmHg 84%
04:00 +26°C° 0.1 mm 4 m/S 757 mmHg 84%
05:00 +26°C° 0.1 mm 3 m/S 758 mmHg 84%
06:00 +26°C° 0.1 mm 3 m/S 758 mmHg 83%
07:00 +26°C° 0.1 mm 3 m/S 758 mmHg 83%
08:00 +28°C° 0 mm 3 m/S 759 mmHg 77%
09:00 +29°C° 0 mm 3 m/S 759 mmHg 71%
10:00 +30°C° 0 mm 3 m/S 759 mmHg 65%
11:00 +32°C° 0 mm 4 m/S 758 mmHg 66%
12:00 +32°C° 0 mm 5 m/S 758 mmHg 66%
13:00 +33°C° 0 mm 6 m/S 757 mmHg 67%
14:00 +32°C° 0.3 mm 5 m/S 756 mmHg 72%
15:00 +30°C° 0.3 mm 5 m/S 756 mmHg 76%
16:00 +30°C° 0.3 mm 4 m/S 756 mmHg 81%
17:00 +29°C° 1.1 mm 4 m/S 756 mmHg 83%
18:00 +29°C° 1.1 mm 4 m/S 756 mmHg 85%
19:00 +28°C° 1.1 mm 4 m/S 757 mmHg 87%
20:00 +28°C° 0.6 mm 3 m/S 757 mmHg 86%
21:00 +28°C° 0.6 mm 3 m/S 757 mmHg 86%
22:00 +28°C° 0.6 mm 3 m/S 758 mmHg 85%
23:00 +27°C° 0.9 mm 3 m/S 757 mmHg 85%
Mehr zeigen